FENGYUN 1C DEB, 29800

Orbit data source: Space-Track

FENGYUN 1C DEB, 29800 is space debris in SSO originally from a launch on Mon, 10 May 1999 UTC launched from the Taiyaun Space Center, China (TSC). Fengyun 1C debris stems from the Chinese weather satellite Fengyun-1C, which was intentionally destroyed by a Chinese anti-satellite missile in 2007. This event dramatically increased the amount of space debris, with thousands of trackable fragments posing hazards to satellites and human spaceflight. The Fengyun 1C debris cloud has become a focal point in discussions about space sustainability and the need for international regulations to prevent the creation of new debris.

Loading next visibility...
Identifier
29800, 1999-025CS
Orbit
SSO
Country
Flag of CNCN / PRC
Related business
Manufacturer
Unknown
Mission
Spacecraft
Bus & Motor
Unknown
Mass
Unknown
Launch date (UTC)
1999-05-10 (27 years ago)
Launch vehicle
Unknown
Launch site
Taiyaun Space Center, China (TSC)
Object type
Payload
Rocket body
Debris
Shape & HBR
Unknown shape, 0.1 m
Radar Cross Section
Small (<0.1 m²)

Expand to show TLE details & history
Last TLE update: 6 hours ago

TLE from 6 hours ago
0 FENGYUN 1C DEB
1 29800U 99025CS  26124.48754417  .00002480  00000-0  16052-2 0  9999
2 29800  98.2779 137.5377 0131448 184.2798 335.9400 13.99431538975726
Epoch: 2026-05-04T11:42Z
TLE epoch observation values (Epoch: 2026-05-04T11:42:03.816Z)
Latitude
20.18668°
Longitude
-77.30425°
Altitude
811.158 km
Speed
7.494 km/s
True Right ascension
21h 22m 21s
True Declination
20° 04' 35"
Sunlit
Object was in daylight at epoch
Visualization orbit readout
Latitude
Unknown
Longitude
Unknown
Altitude
Unknown
Speed
Unknown
Apparent Right ascension
Unknown
Apparent Declination
Unknown
Sunlit
N/A
Visualization observer readout
Local Sidereal Time
01:36:55
Azimuth
Unknown
Elevation
Unknown
Doppler factor
Unknown
Orbital elements
Apogee altitude
988.506 km
Perigee altitude
797.353 km
Semi-major axis
7,271.067 km
Eccentricity
0.01314
Inclination
98.2779°
RAAN
137.5377°
Arg. of periapsis
184.2798°
True anomaly
335.31656°
Mean anomaly
335.94°
Eccentric anomaly
335.62922°
Mean motion
3.50063 °/min
Orbital period
102.84 mins
BSTAR
0.0016052
Loading maneuver chart data...
Computing Atmospheric mass density...

Documentation

Showing up to 5 results
|